Location: Champs
(48.8539°N, 2.6040°E)
Time: 01:08:48
(UTC+00:00)

USA 308 - Pass Details

Date: 04 June 2022
Orbit: 549 x 558 km, 54.0° (Epoch: 14 June)

Event Time Altitude Azimuth Distance (km) Brightness Sun altitude
Rises 22:17:08 0° 246° (WSW) 2,721 6.3 -15.8°
Reaches altitude 10° 22:19:22 10° 248° (WSW) 1,831 5.5 -15.9°
Maximum altitude 22:23:31 77° 334° (NNW) 575 3.0 -16.2°
Drops below altitude 10° 22:27:43 10° 62° (ENE) 1,842 5.6 -16.4°
Sets 22:29:58 0° 64° (ENE) 2,743 6.5 -16.5°
